| time (UTC) | temp C | wind direction | speed KPH | gust KPH | rain 1hr cm | rain 24hr cm | rain mn cm | humidity % | barometer mb |
| 20260510060003 | 8 | 273 | 1.6 | 4.8 | 0.00 | 0.00 | 0.00 | 83 | 1015.8 |
| 20260510053004 | 9 | 156 | 0.0 | 3.2 | 0.00 | 0.00 | 0.00 | 81 | 1016.2 |
| 20260510051503 | 8 | 138 | 1.6 | 3.2 | 0.00 | 0.00 | 0.00 | 82 | 1016.2 |
| 20260510050003 | 7 | 140 | 1.6 | 4.8 | 0.00 | 0.00 | 0.00 | 85 | 1016.2 |
| 20260510043003 | 6 | 140 | 0.0 | 1.6 | 0.00 | 0.00 | 0.00 | 90 | 1016.5 |
| 20260510041503 | 4 | 140 | 0.0 | 3.2 | 0.00 | 0.00 | 0.00 | 92 | 1016.5 |
| 20260510034503 | 2 | 140 | 0.0 | 3.2 | 0.00 | 0.00 | 0.00 | 92 | 1016.7 |
| 20260510031504 | 1 | 146 | 0.0 | 3.2 | 0.00 | 0.00 | 0.00 | 92 | 1017.6 |
| 20260510014504 | 1 | 146 | 0.0 | 0.0 | 0.00 | 0.00 | 0.00 | 90 | 1017.8 |
| 20260510011504 | 1 | 146 | 0.0 | 0.0 | 0.00 | 0.00 | 0.00 | 90 | 1018.4 |
| 20260510003003 | 2 | 146 | 0.0 | 0.0 | 0.00 | 0.00 | 0.00 | 90 | 1018.4 |
| 20260510000003 | 2 | 146 | 0.0 | 0.0 | 0.00 | 0.00 | 0.00 | 90 | 1019.0 |
| 20260509233004 | 2 | 146 | 0.0 | 0.0 | 0.00 | 0.00 | 0.00 | 90 | 1019.0 |
| 20260509231503 | 3 | 146 | 0.0 | 0.0 | 0.00 | 0.00 | 0.00 | 90 | 1019.0 |
| 20260509213003 | 4 | 146 | 0.0 | 0.0 | 0.00 | 0.00 | 0.00 | 89 | 1019.7 |
| 20260509210004 | 5 | 146 | 0.0 | 0.0 | 0.00 | 0.00 | 0.00 | 88 | 1019.7 |
| 20260509204504 | 5 | 146 | 0.0 | 1.6 | 0.00 | 0.00 | 0.00 | 87 | 1019.7 |
| 20260509203005 | 6 | 146 | 0.0 | 3.2 | 0.00 | 0.00 | 0.00 | 86 | 1019.7 |
| 20260509201504 | 6 | 147 | 0.0 | 1.6 | 0.00 | 0.00 | 0.00 | 85 | 1020.0 |
| 20260509194503 | 7 | 147 | 0.0 | 3.2 | 0.00 | 0.00 | 0.00 | 81 | 1020.1 |
| 20260509193005 | 7 | 147 | 1.6 | 4.8 | 0.00 | 0.00 | 0.00 | 80 | 1020.1 |
| 20260509184504 | 9 | 163 | 1.6 | 4.8 | 0.00 | 0.00 | 0.00 | 73 | 1020.1 |
| 20260509174505 | 11 | 131 | 1.6 | 11.3 | 0.00 | 0.00 | 0.00 | 62 | 1019.8 |
| 20260509171504 | 12 | 96 | 3.2 | 12.9 | 0.00 | 0.00 | 0.00 | 55 | 1019.8 |
| 20260509154505 | 14 | 64 | 8.0 | 27.4 | 0.00 | 0.00 | 0.00 | 42 | 1020.6 |
| 20260509153006 | 14 | 77 | 11.3 | 19.3 | 0.00 | 0.00 | 0.00 | 40 | 1020.9 |
| 20260509151504 | 15 | 74 | 6.4 | 19.3 | 0.00 | 0.00 | 0.00 | 41 | 1020.9 |
| 20260509150006 | 15 | 74 | 11.3 | 20.9 | 0.00 | 0.00 | 0.00 | 40 | 1021.0 |
| 20260509144505 | 15 | 93 | 6.4 | 19.3 | 0.00 | 0.00 | 0.00 | 39 | 1021.2 |
| 20260509140005 | 13 | 357 | 12.9 | 20.9 | 0.00 | 0.00 | 0.00 | 52 | 1021.9 |
| 20260509133005 | 12 | 357 | 19.3 | 27.4 | 0.00 | 0.00 | 0.00 | 56 | 1021.9 |
| 20260509131504 | 12 | 350 | 19.3 | 25.7 | 0.00 | 0.00 | 0.00 | 54 | 1022.1 |
| 20260509124505 | 12 | 349 | 19.3 | 27.4 | 0.00 | 0.00 | 0.00 | 55 | 1022.1 |
| 20260509121504 | 13 | 345 | 12.9 | 19.3 | 0.00 | 0.00 | 0.00 | 61 | 1022.2 |
| 20260509120005 | 15 | 65 | 12.9 | 22.5 | 0.00 | 0.00 | 0.00 | 38 | 1022.2 |
| 20260509114504 | 15 | 57 | 6.4 | 19.3 | 0.00 | 0.00 | 0.00 | 41 | 1022.4 |
| 20260509110005 | 12 | 0 | 17.7 | 25.7 | 0.00 | 0.00 | 0.00 | 66 | 1022.5 |
| 20260509104504 | 12 | 3 | 16.1 | 24.1 | 0.00 | 0.00 | 0.00 | 67 | 1022.5 |
| 20260509100005 | 11 | 351 | 16.1 | 25.7 | 0.00 | 0.00 | 0.00 | 74 | 1022.7 |
| 20260509093006 | 11 | 354 | 14.5 | 25.7 | 0.00 | 0.00 | 0.00 | 76 | 1022.8 |
| 20260509090005 | 10 | 354 | 16.1 | 22.5 | 0.00 | 0.00 | 0.00 | 77 | 1022.8 |
| 20260509080006 | 10 | 350 | 14.5 | 19.3 | 0.00 | 0.00 | 0.00 | 76 | 1022.8 |
| 20260509074504 | 10 | 351 | 12.9 | 20.9 | 0.00 | 0.00 | 0.00 | 76 | 1022.8 |
| 20260509073005 | 10 | 4 | 11.3 | 19.3 | 0.00 | 0.00 | 0.00 | 74 | 1022.9 |
| 20260509071505 | 10 | 345 | 12.9 | 19.3 | 0.00 | 0.00 | 0.00 | 74 | 1023.1 |